Cadillac, MI

4:17 PM EDT on June 19, 2018 (GMT -0400)
Wexford County

Weather History for KCAD - September, 2017

Change the Weather History Date:

Wednesday, September 13, 2017

  Actual Average Record
Temperature  
Mean Temperature 64 °F -  
Max Temperature 81 °F 70 °F 91 °F (1952)
Min Temperature 48 °F 49 °F 26 °F (1955)
Growing Degree Days 14 (Base 50)    
Moisture  
Dew Point 48 °F    
Average Humidity 64    
Maximum Humidity 91    
Minimum Humidity 17    
Precipitation  
Precipitation 0.00 in - - ()
Sea Level Pressure  
Sea Level Pressure 29.83 in    
Wind  
Wind Speed 1 mph (SE)    
Max Wind Speed 7 mph    
Max Gust Speed -    
Visibility 9 miles    
Events      
Averages and records for this station are not official NWS values.
T = Trace of Precipitation, MM = Missing Value Source: NWS Daily Summary

Daily Weather History Graph

Daily Weather History Graph

Search for Another Location

Airport or City:

Astronomy

Sep. 13, 2017 Rise Set
Actual Time 7:18 AM EDT 7:55 PM EDT
Civil Twilight 6:49 AM EDT 8:24 PM EDT
Nautical Twilight 6:14 AM EDT 8:59 PM EDT
Astronomical Twilight 5:38 AM EDT 9:34 PM EDT
Moon 12:13 AM EDT (9/13) 3:19 PM EDT (9/13)
Length of Visible Light 13h 35m
Length of Day
12h 36m
Last Quarter, 46% of the Moon is Illuminated
Sep 13
Last Quarter
Sep 20
New
Sep 27
First Quarter
Oct 5
Full
Oct 12
Last Quarter

Hourly Weather History & Observations

Time (EDT) Temp. Dew Point Humidity Pressure Visibility Wind Dir Wind Speed Gust Speed Precip Events Conditions
12:14 AM 57.7 °F 55.0 °F 91% 29.90 in 10.0 mi Calm Calm - N/A   Clear
12:34 AM 55.8 °F 52.9 °F 90% 29.90 in 7.0 mi Calm Calm - N/A   Clear
12:55 AM 55.4 °F 52.7 °F 91% 29.89 in 7.0 mi Calm Calm - N/A   Clear
1:14 AM 55.8 °F 52.9 °F 90% 29.89 in 4.0 mi Calm Calm - N/A   Clear
1:34 AM 54.9 °F 52.0 °F 90% 29.88 in 3.0 mi Calm Calm - N/A   Clear
1:55 AM 54.0 °F 51.1 °F 90% 29.88 in 7.0 mi Calm Calm - N/A   Clear
2:14 AM 53.8 °F 50.9 °F 90% 29.87 in 5.0 mi Calm Calm - N/A   Clear
2:34 AM 53.6 °F 50.7 °F 90% 29.87 in 7.0 mi Calm Calm - N/A   Clear
2:54 AM 53.1 °F 50.2 °F 90% 29.86 in 7.0 mi Calm Calm - N/A   Clear
3:14 AM 52.9 °F 50.0 °F 90% 29.86 in 10.0 mi Calm Calm - N/A   Clear
3:35 AM 52.3 °F 49.5 °F 90% 29.86 in 2.5 mi Calm Calm - N/A   Clear
3:54 AM 52.9 °F 50.0 °F 90% 29.86 in 1.2 mi Calm Calm - N/A   Mist
4:14 AM 51.8 °F 48.9 °F 90% 29.86 in 7.0 mi Calm Calm - N/A   Clear
4:35 AM 50.9 °F 48.2 °F 90% 29.86 in 10.0 mi Calm Calm - N/A   Clear
4:54 AM 50.5 °F 47.8 °F 90% 29.86 in 10.0 mi Calm Calm - N/A   Clear
5:14 AM 50.4 °F 47.7 °F 90% 29.86 in 7.0 mi Calm Calm - N/A   Clear
5:35 AM 50.0 °F 47.3 °F 90% 29.87 in 10.0 mi Calm Calm - N/A   Clear
5:54 AM 50.5 °F 47.7 °F 90% 29.87 in 7.0 mi Calm Calm - N/A   Clear
6:14 AM 49.5 °F 46.6 °F 90% 29.87 in 7.0 mi Calm Calm - N/A   Clear
6:35 AM 49.8 °F 46.9 °F 90% 29.87 in 7.0 mi Calm Calm - N/A   Clear
6:54 AM 49.3 °F 46.4 °F 90% 29.87 in 4.0 mi Calm Calm - N/A   Clear
7:14 AM 48.2 °F 45.3 °F 90% 29.87 in 5.0 mi NNW 3.5 mph - N/A   Clear
7:35 AM 49.3 °F 46.6 °F 90% 29.87 in 7.0 mi Calm Calm - N/A   Clear
7:54 AM 50.0 °F 47.3 °F 90% 29.87 in 10.0 mi Calm Calm - N/A   Clear
8:14 AM 52.0 °F 49.1 °F 90% 29.87 in 10.0 mi Calm Calm - N/A   Clear
8:35 AM 54.5 °F 50.5 °F 86% 29.86 in 10.0 mi Calm Calm - N/A   Clear
8:54 AM 56.8 °F 52.2 °F 84% 29.86 in 10.0 mi Calm Calm - N/A   Clear
9:15 AM 59.9 °F 53.6 °F 80% 29.85 in 10.0 mi Calm Calm - N/A   Clear
9:35 AM 63.5 °F 54.1 °F 72% 29.85 in 10.0 mi Calm Calm - N/A   Clear
9:54 AM 66.4 °F 53.4 °F 63% 29.85 in 10.0 mi Calm Calm - N/A   Clear
10:15 AM 69.3 °F 51.8 °F 54% 29.85 in 10.0 mi Calm Calm - N/A   Clear
10:35 AM 70.9 °F 51.6 °F 50% 29.84 in 10.0 mi Calm Calm - N/A   Clear
10:54 AM 72.9 °F 49.5 °F 44% 29.84 in 10.0 mi Calm Calm - N/A   Clear
11:15 AM 74.3 °F 47.3 °F 38% 29.84 in 10.0 mi Calm Calm - N/A   Clear
11:35 AM 75.2 °F 48.4 °F 39% 29.84 in 10.0 mi East 3.5 mph - N/A   Clear
11:54 AM 75.6 °F 49.6 °F 40% 29.83 in 10.0 mi Calm Calm - N/A   Clear
12:15 PM 76.3 °F 49.8 °F 39% 29.82 in 10.0 mi East 4.6 mph - N/A   Clear
12:35 PM 78.1 °F 48.7 °F 36% 29.82 in 10.0 mi East 6.9 mph - N/A   Clear
12:54 PM 78.4 °F 44.8 °F 30% 29.82 in 10.0 mi East 5.8 mph - N/A   Clear
1:15 PM 78.4 °F 42.8 °F 28% 29.81 in 10.0 mi Calm Calm - N/A   Clear
1:35 PM 79.7 °F 42.6 °F 27% 29.81 in 10.0 mi East 4.6 mph - N/A   Clear
1:54 PM 79.9 °F 42.1 °F 26% 29.80 in 10.0 mi East 6.9 mph - N/A   Clear
2:15 PM 79.7 °F 40.3 °F 24% 29.79 in 10.0 mi NE 3.5 mph - N/A   Clear
2:35 PM 81.1 °F 41.5 °F 24% 29.78 in 10.0 mi SE 4.6 mph - N/A   Clear
3:15 PM 81.1 °F 43.2 °F 26% 29.78 in 10.0 mi ESE 5.8 mph - N/A   Clear
3:35 PM 79.9 °F 41.9 °F 26% 29.77 in 10.0 mi ESE 4.6 mph - N/A   Clear
3:54 PM 81.3 °F 41.0 °F 24% 29.77 in 10.0 mi East 6.9 mph - N/A   Clear
4:15 PM 81.1 °F 33.3 °F 18% 29.77 in 10.0 mi ESE 5.8 mph - N/A   Clear
4:34 PM 80.1 °F 32.7 °F 18% 29.77 in 10.0 mi Calm Calm - N/A   Clear
4:54 PM 80.6 °F 32.2 °F 17% 29.77 in 10.0 mi South 6.9 mph - N/A   Clear
5:15 PM 80.1 °F 36.0 °F 20% 29.77 in 10.0 mi South 4.6 mph - N/A   Clear
5:34 PM 79.9 °F 39.9 °F 24% 29.77 in 10.0 mi South 4.6 mph - N/A   Clear
5:54 PM 78.8 °F 45.3 °F 31% 29.77 in 10.0 mi South 3.5 mph - N/A   Clear
6:15 PM 77.4 °F 50.0 °F 38% 29.78 in 10.0 mi South 6.9 mph - N/A   Clear
6:34 PM 76.5 °F 50.4 °F 40% 29.78 in 10.0 mi South 5.8 mph - N/A   Clear
6:54 PM 75.4 °F 49.3 °F 40% 29.78 in 10.0 mi South 6.9 mph - N/A   Clear
7:15 PM 73.8 °F 46.9 °F 38% 29.78 in 10.0 mi South 5.8 mph - N/A   Clear
7:34 PM 72.1 °F 48.4 °F 43% 29.79 in 10.0 mi South 4.6 mph - N/A   Clear
7:54 PM 70.7 °F 49.1 °F 46% 29.79 in 10.0 mi South 3.5 mph - N/A   Clear
8:14 PM 66.9 °F 50.5 °F 56% 29.79 in 10.0 mi Calm Calm - N/A   Clear
8:34 PM 64.4 °F 50.5 °F 61% 29.79 in 10.0 mi Calm Calm - N/A   Clear
8:55 PM 61.0 °F 50.9 °F 69% 29.80 in 10.0 mi West 3.5 mph - N/A   Clear
9:14 PM 59.9 °F 52.3 °F 76% 29.80 in 10.0 mi Calm Calm - N/A   Clear
9:34 PM 59.0 °F 52.9 °F 80% 29.80 in 10.0 mi Calm Calm - N/A   Clear
9:55 PM 58.3 °F 52.7 °F 82% 29.80 in 10.0 mi Calm Calm - N/A   Clear
10:14 PM 57.2 °F 52.3 °F 84% 29.81 in 10.0 mi Calm Calm - N/A   Clear
10:34 PM 55.0 °F 51.3 °F 87% 29.81 in 10.0 mi Calm Calm - N/A   Clear
10:55 PM 55.4 °F 52.3 °F 89% 29.81 in 10.0 mi Calm Calm - N/A   Clear
11:14 PM 55.9 °F 52.5 °F 88% 29.81 in 10.0 mi Calm Calm - N/A   Clear
11:35 PM 53.8 °F 50.7 °F 89% 29.82 in 10.0 mi Calm Calm - N/A   Clear
11:54 PM 54.3 °F 51.4 °F 90% 29.82 in 10.0 mi Calm Calm - N/A   Clear